Watertown, WI

12:16 PM CDT on August 19, 2017 (GMT -0500)
Watertown Municipal

Weather History for KRYV - March, 2013

Change the Weather History Date:

Wednesday, March 20, 2013

  Actual Average Record
Temperature  
Mean Temperature 14 °F -  
Max Temperature 20 °F 43 °F 82 °F (2012)
Min Temperature 9 °F 27 °F -4 °F (1965)
Degree Days  
Heating Degree Days 50    
Moisture  
Dew Point 2 °F    
Average Humidity 58    
Maximum Humidity 65    
Minimum Humidity 50    
Precipitation  
Precipitation 0.00 in - - ()
Sea Level Pressure  
Sea Level Pressure 30.02 in    
Wind  
Wind Speed 10 mph (WNW)    
Max Wind Speed 17 mph    
Max Gust Speed 24 mph    
Visibility 10 miles    
Events      
Averages and records for this station are not official NWS values.
T = Trace of Precipitation, MM = Missing Value Source: NWS Daily Summary

Daily Weather History Graph

Daily Weather History Graph

Search for Another Location

Airport or City:

Trip Planner

Search our weather history database for the weather conditions in past years. The results will help you decide how hot, cold, wet, or windy it might be!

Date:

Astronomy

Mar. 20, 2013 Rise Set
Actual Time 6:57 AM CDT 7:07 PM CDT
Civil Twilight 6:29 AM CDT 7:35 PM CDT
Nautical Twilight 5:56 AM CDT 8:09 PM CDT
Astronomical Twilight 5:22 AM CDT 8:43 PM CDT
Moon 12:34 PM CDT (3/20) 2:46 AM CDT (3/20)
Length of Visible Light 13h 06m
Length of Day
12h 09m
First Quarter, 59% of the Moon is Illuminated
Mar 20
First Quarter
Mar 27
Full
Apr 2
Last Quarter
Apr 10
New
Apr 18
First Quarter

Hourly Weather History & Observations

Time (CDT) Temp. Windchill Dew Point Humidity Pressure Visibility Wind Dir Wind Speed Gust Speed Precip Events Conditions
12:15 AM 18.5 °F 6.8 °F 6.8 °F 60% 30.02 in 10.0 mi West 10.4 mph - N/A   Clear
12:35 AM 18.1 °F 7.1 °F 6.4 °F 60% 30.02 in 10.0 mi West 9.2 mph 16.1 mph N/A   Clear
12:55 AM 17.4 °F 8.0 °F 6.3 °F 62% 30.02 in 10.0 mi West 6.9 mph - N/A   Clear
1:15 AM 16.9 °F 6.4 °F 5.5 °F 61% 30.02 in 10.0 mi WNW 8.1 mph 18.4 mph N/A   Clear
1:35 AM 16.3 °F 7.8 °F 5.7 °F 63% 30.02 in 10.0 mi WNW 5.8 mph - N/A   Clear
1:55 AM 15.4 °F 6.8 °F 5.7 °F 65% 30.02 in 10.0 mi WNW 5.8 mph - N/A   Clear
2:15 AM 15.3 °F 3.5 °F 4.5 °F 62% 30.02 in 10.0 mi West 9.2 mph - N/A   Clear
2:35 AM 14.9 °F 3.1 °F 3.9 °F 62% 30.02 in 10.0 mi West 9.2 mph - N/A   Clear
2:55 AM 14.0 °F 1.2 °F 3.7 °F 64% 30.02 in 10.0 mi West 10.4 mph - N/A   Clear
3:15 AM 13.6 °F 1.6 °F 3.4 °F 64% 30.02 in 10.0 mi West 9.2 mph - N/A   Clear
3:35 AM 13.1 °F 1.8 °F 3.0 °F 64% 30.02 in 10.0 mi West 8.1 mph - N/A   Clear
3:55 AM 12.7 °F 2.4 °F 2.5 °F 64% 30.02 in 10.0 mi West 6.9 mph - N/A   Clear
4:15 AM 12.2 °F -0.2 °F 2.3 °F 65% 30.02 in 10.0 mi WNW 9.2 mph - N/A   Clear
4:35 AM 11.7 °F -0.9 °F 1.9 °F 65% 30.02 in 10.0 mi West 9.2 mph - N/A   Clear
4:55 AM 11.1 °F -1.6 °F 1.4 °F 65% 30.02 in 10.0 mi West 9.2 mph - N/A   Clear
5:15 AM 10.8 °F -1.1 °F 1.0 °F 65% 30.02 in 10.0 mi West 8.1 mph - N/A   Clear
5:35 AM 10.4 °F -2.4 °F 0.3 °F 64% 30.02 in 10.0 mi West 9.2 mph - N/A   Clear
5:55 AM 10.4 °F -4.1 °F -0.2 °F 62% 30.02 in 10.0 mi WNW 11.5 mph 17.3 mph N/A   Clear
6:15 AM 10.2 °F -3.5 °F -0.6 °F 62% 30.03 in 10.0 mi West 10.4 mph - N/A   Clear
6:35 AM 9.9 °F -5.5 °F -0.9 °F 62% 30.03 in 10.0 mi WNW 12.7 mph - N/A   Clear
6:55 AM 9.5 °F -4.4 °F -1.3 °F 62% 30.04 in 10.0 mi West 10.4 mph - N/A   Clear
7:15 AM 9.1 °F -6.4 °F -1.3 °F 63% 30.04 in 10.0 mi WNW 12.7 mph 17.3 mph N/A   Clear
7:55 AM 9.5 °F -4.4 °F -2.2 °F 59% 30.05 in 10.0 mi WNW 10.4 mph - N/A   Clear
8:15 AM 9.9 °F -4.7 °F -2.2 °F 58% 30.05 in 10.0 mi WNW 11.5 mph 19.6 mph N/A   Clear
8:35 AM 10.2 °F -6.3 °F -2.4 °F 57% 30.05 in 10.0 mi WNW 15.0 mph 18.4 mph N/A   Clear
8:55 AM 10.4 °F -3.3 °F -2.2 °F 57% 30.05 in 10.0 mi WNW 10.4 mph - N/A   Clear
9:15 AM 10.6 °F -4.5 °F -2.2 °F 56% 30.05 in 10.0 mi West 12.7 mph 19.6 mph N/A   Clear
9:35 AM 11.3 °F -3.6 °F -1.8 °F 56% 30.05 in 10.0 mi WNW 12.7 mph 19.6 mph N/A   Clear
9:55 AM 11.5 °F -4.7 °F -1.5 °F 56% 30.05 in 10.0 mi West 15.0 mph - N/A   Clear
10:15 AM 12.0 °F -4.0 °F -1.3 °F 55% 30.05 in 10.0 mi West 15.0 mph 21.9 mph N/A   Clear
10:35 AM 12.6 °F -2.7 °F -0.6 °F 56% 30.04 in 10.0 mi West 13.8 mph 21.9 mph N/A   Clear
10:55 AM 13.1 °F -1.4 °F -0.4 °F 55% 30.04 in 10.0 mi WNW 12.7 mph - N/A   Clear
11:15 AM 13.8 °F -1.1 °F 0.1 °F 55% 30.04 in 10.0 mi West 13.8 mph 18.4 mph N/A   Clear
11:55 AM 15.3 °F 0.8 °F 1.8 °F 55% 30.04 in 10.0 mi West 13.8 mph - N/A   Clear
12:15 PM 15.8 °F 0.3 °F 2.3 °F 55% 30.03 in 10.0 mi West 16.1 mph 20.7 mph N/A   Clear
12:35 PM 16.7 °F 2.6 °F 3.2 °F 55% 30.03 in 10.0 mi West 13.8 mph 18.4 mph N/A   Clear
12:55 PM 17.2 °F 2.7 °F 3.2 °F 54% 30.03 in 10.0 mi West 15.0 mph 21.9 mph N/A   Scattered Clouds
1:15 PM 18.1 °F 5.6 °F 3.6 °F 53% 30.03 in 10.0 mi West 11.5 mph 19.6 mph N/A   Scattered Clouds
1:55 PM 19.0 °F 4.0 °F 4.3 °F 53% 30.01 in 10.0 mi WNW 17.3 mph 21.9 mph N/A   Scattered Clouds
2:15 PM 19.4 °F 5.5 °F 3.7 °F 51% 30.01 in 10.0 mi West 15.0 mph 23.0 mph N/A   Mostly Cloudy
2:35 PM 19.4 °F 7.2 °F 3.9 °F 51% 30.00 in 10.0 mi WNW 11.5 mph 19.6 mph N/A   Overcast
2:55 PM 19.4 °F 6.0 °F 3.9 °F 51% 29.99 in 10.0 mi West 13.8 mph 23.0 mph N/A   Mostly Cloudy
3:15 PM 18.9 °F 4.8 °F 3.7 °F 52% 30.00 in 10.0 mi West 15.0 mph 24.2 mph N/A   Mostly Cloudy
3:35 PM 19.4 °F 6.0 °F 4.1 °F 52% 29.99 in 10.0 mi West 13.8 mph 19.6 mph N/A   Mostly Cloudy
3:55 PM 19.6 °F 6.8 °F 4.3 °F 52% 29.99 in 10.0 mi WNW 12.7 mph 24.2 mph N/A   Mostly Cloudy
4:15 PM 20.3 °F 7.7 °F 4.5 °F 50% 29.99 in 10.0 mi WNW 12.7 mph - N/A   Overcast
4:55 PM 19.6 °F 6.8 °F 4.8 °F 53% 30.00 in 10.0 mi WNW 12.7 mph 20.7 mph N/A   Overcast
5:35 PM 18.7 °F 7.0 °F 3.7 °F 52% 30.00 in 10.0 mi WNW 10.4 mph - N/A   Overcast
5:55 PM 18.3 °F 5.2 °F 3.2 °F 52% 30.01 in 10.0 mi NW 12.7 mph 17.3 mph N/A   Mostly Cloudy
6:15 PM 18.5 °F 8.4 °F 3.4 °F 52% 30.01 in 10.0 mi NW 8.1 mph 18.4 mph N/A   Mostly Cloudy
6:35 PM 18.0 °F 7.7 °F 3.4 °F 53% 30.02 in 10.0 mi NW 8.1 mph 16.1 mph N/A   Clear
6:55 PM 17.2 °F 8.9 °F 3.7 °F 56% 30.02 in 10.0 mi WNW 5.8 mph - N/A   Clear
7:15 PM 16.7 °F 7.2 °F 3.4 °F 56% 30.01 in 10.0 mi WNW 6.9 mph - N/A   Clear
7:55 PM 15.8 °F 6.1 °F 3.0 °F 57% 30.02 in 10.0 mi WNW 6.9 mph - N/A   Clear
8:15 PM 15.4 °F 6.8 °F 3.0 °F 58% 30.03 in 10.0 mi NW 5.8 mph - N/A   Clear
8:35 PM 15.3 °F 7.9 °F 3.0 °F 58% 30.03 in 10.0 mi WNW 4.6 mph - N/A   Clear
8:55 PM 14.9 °F 4.0 °F 2.5 °F 58% 30.03 in 10.0 mi NW 8.1 mph - N/A   Clear
9:15 PM 14.5 °F 3.6 °F 2.8 °F 60% 30.03 in 10.0 mi NW 8.1 mph - N/A   Clear
9:35 PM 14.4 °F 4.3 °F 2.8 °F 60% 30.03 in 10.0 mi NW 6.9 mph - N/A   Clear
9:55 PM 14.0 °F 3.9 °F 2.7 °F 61% 30.03 in 10.0 mi NW 6.9 mph - N/A   Clear
10:15 PM 14.0 °F 5.1 °F 2.7 °F 61% 30.03 in 10.0 mi WNW 5.8 mph - N/A   Clear
10:35 PM 13.6 °F 2.5 °F 2.3 °F 61% 30.04 in 10.0 mi WNW 8.1 mph - N/A   Clear
10:55 PM 13.1 °F 1.8 °F 2.1 °F 62% 30.03 in 10.0 mi WNW 8.1 mph - N/A   Clear
11:15 PM 12.9 °F 2.6 °F 2.3 °F 63% 30.03 in 10.0 mi WNW 6.9 mph - N/A   Clear
11:35 PM 12.6 °F 3.4 °F 2.3 °F 64% 30.03 in 10.0 mi WNW 5.8 mph - N/A   Clear
11:55 PM 12.2 °F 0.7 °F 2.1 °F 64% 30.03 in 10.0 mi WNW 8.1 mph - N/A   Clear